Regional Weather Roundup
Issued by NWS Cleveland, OH

Home | Current Version | Previous Version | Text Only | Print | Product List | Glossary Off
Versions: 1 2 3 4 5 6 7 8 9 10 11 12 13 14 15 16 17 18 19 20 21 22 23 24 25 26 27 28 29 30 31 32 33 34 35 36 37 38 39 40 41 42 43 44 45 46 47 48 49 50

000
ASUS41 KCLE 300402
RWRCLE
OHIO REGIONAL WEATHER ROUNDUP
NATIONAL WEATHER SERVICE CLEVELAND, OH
1200 AM EDT SUN AUG 30 2015

NOTE: "FAIR" INDICATES FEW OR NO CLOUDS BELOW 12,000 FEET WITH NO
SIGNIFICANT WEATHER AND/OR OBSTRUCTIONS TO VISIBILITY.

OHZ001>008-015>018-024>027-034-035-043-044-300500-
   NORTHWEST OHIO

CITY           SKY/WX    TMP DP  RH WIND       PRES   REMARKS
DEFIANCE       LGT RAIN  69  66  90 NW5       30.09R FOG
FINDLAY        CLOUDY    72  68  87 W5        30.06S
TOLEDO EXPRESS LGT RAIN  69  68  96 W3        30.07S FOG
TOLEDO EXEC    CLOUDY    70  67  90 N3        30.07S FOG
LIMA           CLOUDY    68  66  93 CALM      30.07F
$$

OHZ009>014-019>023-028>033-038-089-300500-
   NORTHEAST OHIO

CITY           SKY/WX    TMP DP  RH WIND       PRES   REMARKS
CLE-HOPKINS    CLOUDY    72  63  73 SE3       30.09F
CLE-LAKEFRONT  CLOUDY    73  68  84 N6        30.06S
CUY CO. ARPT   NOT AVBL
LORAIN-ELYRIA  LGT RAIN  69  65  86 CALM      30.08S
ASHTABULA      CLOUDY    66  65  96 E5        30.09F FOG
AKRON-CANTON   MOCLDY    71  63  75 S3        30.09F
WOOSTER        CLOUDY    70  63  78 CALM      30.09F
MANSFIELD      CLOUDY    71  64  78 S7        30.09S
YOUNGSTOWN     CLOUDY    68  63  84 E3        30.09F
$$

OHZ042-051>053-060>062-070>072-077>081-300500-
  SOUTHWEST OHIO

CITY           SKY/WX    TMP DP  RH WIND       PRES   REMARKS
CINC-COVINGTON MOCLDY    72  67  84 S6        30.08S
CINC-LUNKEN    PTCLDY    68  68 100 CALM      30.07F FOG
HAMILTON       MOCLDY    71  68  90 CALM      30.08S
DAYTON         CLOUDY    70  66  87 SW5       30.09S
WRIGHT-PAT AFB MOCLDY    73  68  85 S3        30.07S
DAYTON GENERAL CLOUDY    71  67  87 CALM      30.08S
WILMINGTON     MOCLDY    68  64  87 CALM      30.09S
$$

OHZ036-037-039>041-045>050-054>059-063>069-073>076-082>088-300500-
  CENTRAL AND SOUTHEAST OHIO

CITY           SKY/WX    TMP DP  RH WIND       PRES   REMARKS
COLUMBUS       CLOUDY    71  66  84 SE5       30.07F
OSU AIRPORT    MOCLDY    71  67  87 CALM      30.08F
BOLTON FIELD   NOT AVBL
RICKENBACK AFB CLOUDY    71  67  89 S5        30.07S
NEWARK         MOCLDY    67  66  97 CALM      30.08F FOG
MARION         MOCLDY    68  63  84 S5        30.08S
LANCASTER      CLOUDY    69  66  90 SE3       30.08F
ZANESVILLE     MOCLDY    71  64  78 CALM      30.09F
NEW PHILLY     MOCLDY    67  65  93 CALM      30.09F
$$


USA.gov is the U.S. government's official web portal to all federal, state and local government web resources and services.